Change the Weather History Date:

Wednesday, November 27, 2013

  Actual Average Record
Temperature  
Mean Temperature 64 °F -  
Max Temperature 80 °F 71 °F 80 °F (2013)
Min Temperature 49 °F 45 °F 41 °F (1996)
Growing Degree Days 14 (Base 50)    
Moisture  
Dew Point 55 °F    
Average Humidity 76    
Maximum Humidity 100    
Minimum Humidity 29    
Precipitation  
Precipitation 0.00 in - - ()
Sea Level Pressure  
Sea Level Pressure 29.97 in    
Wind  
Wind Speed 0 mph ()    
Max Wind Speed 2 mph    
Max Gust Speed -    
Visibility 1.4 miles    
Events      
Averages and records for this station are not official NWS values.
T = Trace of Precipitation, MM = Missing Value Source: Averaged Metar Reports

Daily Weather History Graph

Daily Weather History Graph

Search for Another Location

Airport or City:

Trip Planner

Search our weather history database for the weather conditions in past years. The results will help you decide how hot, cold, wet, or windy it might be!

Date:

Astronomy

Nov. 27, 2013 Rise Set
Actual Time 7:09 AM IST 5:27 PM IST
Civil Twilight 6:42 AM IST 5:53 PM IST
Nautical Twilight 6:12 AM IST 6:23 PM IST
Astronomical Twilight 5:43 AM IST 6:52 PM IST
Moon 1:05 AM IST (11/27) 1:31 PM IST (11/27)
Length of Visible Light 11h 10m
Length of Day
10h 18m
Waning Crescent, 36% of the Moon is Illuminated
Nov 27
Waning Crescent
Dec 3
New
Dec 9
First Quarter
Dec 17
Full
Dec 25
Last Quarter

Hourly Weather History & Observations

Time (IST) Temp. Dew Point Humidity Pressure Visibility Wind Dir Wind Speed Gust Speed Precip Events Conditions
12:00 AM 57.2 °F 53.6 °F 88% 29.92 in 1.1 mi Calm Calm - N/A   Mist
3:30 AM 53.6 °F 53.6 °F 100% 29.92 in 1.0 mi Calm Calm - N/A   Mist
4:00 AM 53.6 °F 53.6 °F 100% 29.92 in 1.0 mi Calm Calm - N/A   Mist
5:00 AM 51.8 °F 51.8 °F 100% 29.92 in 1.0 mi Calm Calm - N/A   Mist
5:30 AM 53 °F 53 °F 98% 29.93 in 1 mi Calm Calm - -   Mist
5:30 AM 51.8 °F 51.8 °F 100% 29.92 in 1.0 mi Calm Calm - N/A   Mist
6:00 AM 51.8 °F 51.8 °F 100% 29.92 in 1.0 mi Calm Calm - N/A   Mist
6:30 AM 51.8 °F 51.8 °F 100% 29.95 in 1.0 mi Calm Calm - N/A   Mist
7:00 AM 51.8 °F 51.8 °F 100% 29.95 in 0.6 mi Calm Calm - N/A   Mist
7:30 AM 50.0 °F 50.0 °F 100% 29.98 in 0.6 mi Calm Calm - N/A   Mist
8:00 AM 51.8 °F 51.8 °F 100% 29.98 in 0.6 mi Calm Calm - N/A   Mist
8:30 AM 55 °F 55 °F 100% 30.00 in 1 mi Calm Calm - -   Mist
8:30 AM 55.4 °F 55.4 °F 100% 30.01 in 0.6 mi Calm Calm - N/A   Mist
9:00 AM 59.0 °F 59.0 °F 100% 30.01 in 0.6 mi Calm Calm - N/A   Mist
9:30 AM 60.8 °F 60.8 °F 100% 30.01 in 0.7 mi Calm Calm - N/A   Mist
10:00 AM 64.4 °F 64.4 °F 100% 30.01 in 0.7 mi Calm Calm - N/A   Mist
11:00 AM 71.6 °F 57.2 °F 60% 30.04 in 1.2 mi Calm Calm - N/A   Haze
11:30 AM 74 °F 56 °F 43% 30.00 in 1 mi Calm Calm - -   Haze
11:30 AM 73.4 °F 55.4 °F 53% 30.04 in 1.6 mi Calm Calm - N/A   Haze
12:00 PM 75.2 °F 55.4 °F 50% 30.01 in 1.9 mi Calm Calm - N/A   Haze
12:30 PM 77.0 °F 51.8 °F 41% 29.98 in 1.9 mi Variable 2.3 mph - N/A   Haze
1:00 PM 78.8 °F 53.6 °F 42% 29.98 in 2.2 mi Variable 1.2 mph - N/A   Haze
1:30 PM 78.8 °F 53.6 °F 42% 29.98 in 2.2 mi Variable 1.2 mph - N/A   Haze
2:00 PM 78.8 °F 53.6 °F 42% 29.95 in 2.2 mi Variable 1.2 mph - N/A   Haze
2:30 PM 80 °F 53 °F 29% 29.91 in 1 mi 2.3 mph - -   Haze
2:30 PM 78.8 °F 53.6 °F 42% 29.95 in 2.2 mi Variable 2.3 mph - N/A   Haze
3:00 PM 78.8 °F 51.8 °F 39% 29.95 in 2.2 mi Variable 2.3 mph - N/A   Haze
3:30 PM 80.6 °F 51.8 °F 37% 29.92 in 2.2 mi Calm Calm - N/A   Haze
4:00 PM 80.6 °F 51.8 °F 37% 29.92 in 2.2 mi Calm Calm - N/A   Haze
4:30 PM 78.8 °F 51.8 °F 39% 29.92 in 2.5 mi Variable 1.2 mph - N/A   Haze
5:00 PM 77.0 °F 53.6 °F 44% 29.92 in 2.5 mi Calm Calm - N/A   Haze
5:30 PM 73 °F 55 °F 43% 29.91 in 2 mi Calm Calm - -   Haze
5:30 PM 73.4 °F 55.4 °F 53% 29.92 in 2.5 mi Calm Calm - N/A   Haze
6:00 PM 68.0 °F 57.2 °F 68% 29.95 in 1.9 mi Calm Calm - N/A   Haze
6:30 PM 64.4 °F 53.6 °F 68% 29.95 in 1.9 mi Calm Calm - N/A   Haze
7:00 PM 66.2 °F 55.4 °F 68% 29.95 in 1.9 mi Calm Calm - N/A   Haze
7:30 PM 64.4 °F 55.4 °F 73% 29.98 in 1.9 mi Calm Calm - N/A   Haze
8:00 PM 62.6 °F 57.2 °F 82% 29.98 in 1.6 mi Calm Calm - N/A   Mist
8:30 PM 61 °F 60 °F 97% 29.99 in 1 mi Calm Calm - -   Mist
8:30 PM 60.8 °F 60.8 °F 100% 30.01 in 1.2 mi Calm Calm - N/A   Mist
9:00 PM 60.8 °F 57.2 °F 88% 30.01 in 1.2 mi Calm Calm - N/A   Mist
9:30 PM 59.0 °F 59.0 °F 100% 30.01 in 1.2 mi Calm Calm - N/A   Mist
10:00 PM 59.0 °F 59.0 °F 100% 30.04 in 1.2 mi Calm Calm - N/A   Mist
10:30 PM 57.2 °F 57.2 °F 100% 30.04 in 1.2 mi Calm Calm - N/A   Mist
11:00 PM 57.2 °F 57.2 °F 100% 30.04 in 1.2 mi Calm Calm - N/A   Mist
11:30 PM 58 °F 58 °F 100% 30.04 in 1 mi Calm Calm - -   Mist
11:30 PM 57.2 °F 57.2 °F 100% 30.04 in 1.2 mi Calm Calm - N/A   Mist